Time,TemperatureF,DewpointF,PressureIn,WindDirection,WindDirectionDegrees,WindSpeedMPH,WindSpeedGustMPH,Humidity,HourlyPrecipIn,Conditions,Clouds,dailyrainin,SolarRadiationWatts/m^2,SoftwareType,DateUTC
2013-01-14 00:02:00,42.8,40.9,29.88,South,189,0.0,3.0,93,0.00,,,0.00,0,Wunderground v.1.15,2013-01-14 05:02:00,
2013-01-14 00:06:00,42.6,40.7,29.88,South,189,0.0,3.0,93,0.00,,,0.00,0,Wunderground v.1.15,2013-01-14 05:06:00,
2013-01-14 00:11:00,42.6,40.7,29.86,South,189,0.0,3.0,93,0.00,,,0.00,0,Wunderground v.1.15,2013-01-14 05:11:00,
2013-01-14 00:21:00,42.3,40.4,29.86,South,189,0.0,3.0,93,0.00,,,0.00,0,Wunderground v.1.15,2013-01-14 05:21:00,
2013-01-14 00:31:00,43.2,41.6,29.86,WNW,283,0.0,3.0,94,0.00,,,0.00,0,Wunderground v.1.15,2013-01-14 05:31:00,
2013-01-14 00:36:00,42.9,41.0,29.86,WNW,283,0.0,3.0,93,0.00,,,0.00,0,Wunderground v.1.15,2013-01-14 05:36:00,
2013-01-14 00:46:00,42.6,40.7,29.86,WNW,283,0.0,3.0,93,0.00,,,0.00,0,Wunderground v.1.15,2013-01-14 05:46:00,
2013-01-14 00:56:00,42.3,40.7,29.85,WNW,283,0.0,3.0,94,0.00,,,0.00,0,Wunderground v.1.15,2013-01-14 05:56:00,
2013-01-14 01:01:00,42.6,41.0,29.85,WNW,283,0.0,3.0,94,0.00,,,0.00,0,Wunderground v.1.15,2013-01-14 06:01:00,
2013-01-14 01:11:00,42.3,40.4,29.85,North,358,0.0,3.0,93,0.00,,,0.00,0,Wunderground v.1.15,2013-01-14 06:11:00,
2013-01-14 01:21:00,41.9,40.3,29.85,North,358,0.0,3.0,94,0.00,,,0.00,0,Wunderground v.1.15,2013-01-14 06:21:00,
2013-01-14 01:26:00,42.2,40.6,29.84,North,358,0.0,3.0,94,0.00,,,0.00,0,Wunderground v.1.15,2013-01-14 06:26:00,
2013-01-14 01:36:00,42.6,41.0,29.84,NNE,14,0.0,3.0,94,0.00,,,0.00,0,Wunderground v.1.15,2013-01-14 06:36:00,
2013-01-14 01:46:00,42.5,40.9,29.84,North,8,0.0,3.0,94,0.00,,,0.00,0,Wunderground v.1.15,2013-01-14 06:46:00,
2013-01-14 01:56:00,42.6,41.0,29.84,North,8,0.0,3.0,94,0.00,,,0.00,0,Wunderground v.1.15,2013-01-14 06:56:00,
2013-01-14 02:06:00,42.6,41.0,29.84,NE,34,1.0,3.0,94,0.00,,,0.00,0,Wunderground v.1.15,2013-01-14 07:06:00,
2013-01-14 02:16:00,42.6,41.0,29.82,NE,34,0.0,3.0,94,0.00,,,0.00,0,Wunderground v.1.15,2013-01-14 07:16:00,
2013-01-14 02:21:00,42.5,40.9,29.82,NNE,18,0.0,3.0,94,0.00,,,0.00,0,Wunderground v.1.15,2013-01-14 07:21:00,
2013-01-14 02:31:00,42.3,40.7,29.83,North,11,0.0,3.0,94,0.00,,,0.00,0,Wunderground v.1.15,2013-01-14 07:31:00,
2013-01-14 02:41:00,42.8,41.2,29.80,North,3,0.0,3.0,94,0.00,,,0.00,0,Wunderground v.1.15,2013-01-14 07:41:00,
2013-01-14 02:51:00,42.5,40.9,29.80,North,3,0.0,3.0,94,0.00,,,0.00,0,Wunderground v.1.15,2013-01-14 07:51:00,
2013-01-14 03:01:00,42.2,40.6,29.78,NNW,345,0.0,3.0,94,0.00,,,0.00,0,Wunderground v.1.15,2013-01-14 08:01:00,
2013-01-14 03:06:00,42.2,40.6,29.78,North,352,0.0,3.0,94,0.00,,,0.00,0,Wunderground v.1.15,2013-01-14 08:06:00,
2013-01-14 03:16:00,42.1,40.5,29.76,NE,46,0.0,3.0,94,0.00,,,0.00,0,Wunderground v.1.15,2013-01-14 08:16:00,
2013-01-14 03:21:00,42.1,40.5,29.76,NE,41,0.0,3.0,94,0.00,,,0.00,0,Wunderground v.1.15,2013-01-14 08:21:00,
2013-01-14 03:31:00,42.1,40.5,29.75,ESE,110,0.0,5.0,94,0.00,,,0.00,0,Wunderground v.1.15,2013-01-14 08:31:00,
2013-01-14 03:36:00,42.3,41.0,29.75,ESE,120,1.0,5.0,95,0.00,,,0.00,0,Wunderground v.1.15,2013-01-14 08:36:00,
2013-01-14 03:46:00,42.6,41.0,29.77,ENE,63,0.0,5.0,94,0.00,,,0.00,0,Wunderground v.1.15,2013-01-14 08:46:00,
2013-01-14 03:56:00,42.6,41.3,29.78,North,7,1.0,5.0,95,0.00,,,0.00,0,Wunderground v.1.15,2013-01-14 08:56:00,
2013-01-14 04:01:00,42.6,41.3,29.78,SE,131,1.0,5.0,95,0.00,,,0.00,0,Wunderground v.1.15,2013-01-14 09:01:00,
2013-01-14 04:11:00,42.8,41.5,29.77,NNE,25,2.0,5.0,95,0.00,,,0.00,0,Wunderground v.1.15,2013-01-14 09:11:00,
2013-01-14 04:21:00,42.9,41.6,29.77,East,89,2.0,5.0,95,0.00,,,0.00,0,Wunderground v.1.15,2013-01-14 09:21:00,
2013-01-14 04:26:00,42.9,41.6,29.79,ENE,60,2.0,5.0,95,0.00,,,0.00,0,Wunderground v.1.15,2013-01-14 09:26:00,
2013-01-14 04:36:00,42.8,41.2,29.79,ENE,63,1.0,6.0,94,0.00,,,0.00,0,Wunderground v.1.15,2013-01-14 09:36:00,
2013-01-14 04:46:00,42.8,41.5,29.77,NE,34,1.0,6.0,95,0.00,,,0.00,0,Wunderground v.1.15,2013-01-14 09:46:00,
2013-01-14 04:56:00,43.1,41.8,29.77,ENE,77,2.0,6.0,95,0.00,,,0.00,0,Wunderground v.1.15,2013-01-14 09:56:00,
2013-01-14 05:11:00,43.5,42.2,29.78,North,1,3.0,10.0,95,0.00,,,0.00,0,Wunderground v.1.15,2013-01-14 10:11:00,
2013-01-14 05:21:00,43.6,42.3,29.78,East,95,2.0,2.0,95,0.00,,,0.00,0,Wunderground v.1.15,2013-01-14 10:21:00,
2013-01-14 05:26:00,43.6,42.3,29.79,North,0,1.0,10.0,95,0.00,,,0.00,0,Wunderground v.1.15,2013-01-14 10:26:00,
2013-01-14 05:36:00,43.5,42.2,29.79,ENE,75,0.0,9.0,95,0.00,,,0.00,0,Wunderground v.1.15,2013-01-14 10:36:00,
2013-01-14 05:46:00,43.8,42.5,29.80,East,79,1.0,9.0,95,0.00,,,0.00,0,Wunderground v.1.15,2013-01-14 10:46:00,
2013-01-14 05:56:00,43.5,41.9,29.79,SE,128,0.0,9.0,94,0.00,,,0.00,0,Wunderground v.1.15,2013-01-14 10:56:00,
2013-01-14 06:06:00,44.3,43.0,29.79,East,82,1.0,4.0,95,0.00,,,0.00,0,Wunderground v.1.15,2013-01-14 11:06:00,
2013-01-14 06:16:00,45.1,43.5,29.80,ENE,72,2.0,4.0,94,0.00,,,0.00,0,Wunderground v.1.15,2013-01-14 11:16:00,
2013-01-14 06:21:00,45.5,43.9,29.80,East,84,3.0,4.0,94,0.00,,,0.00,0,Wunderground v.1.15,2013-01-14 11:21:00,
2013-01-14 06:31:00,45.8,43.9,29.82,East,84,3.0,3.0,93,0.00,,,0.00,0,Wunderground v.1.15,2013-01-14 11:31:00,
2013-01-14 06:41:00,45.8,43.6,29.83,ENE,60,3.0,3.0,92,0.00,,,0.00,0,Wunderground v.1.15,2013-01-14 11:41:00,
2013-01-14 06:51:00,45.8,43.6,29.83,East,82,3.0,10.0,92,0.00,,,0.00,0,Wunderground v.1.15,2013-01-14 11:51:00,
2013-01-14 07:01:00,45.5,43.0,29.84,NE,53,2.0,10.0,91,0.00,,,0.00,0,Wunderground v.1.15,2013-01-14 12:01:00,
2013-01-14 07:06:00,45.5,43.0,29.84,SSE,155,2.0,10.0,91,0.00,,,0.00,0,Wunderground v.1.15,2013-01-14 12:06:00,
2013-01-14 07:16:00,45.2,42.7,29.85,ESE,111,1.0,10.0,91,0.00,,,0.00,0,Wunderground v.1.15,2013-01-14 12:16:00,
2013-01-14 07:21:00,45.2,42.7,29.85,ENE,75,2.0,2.0,91,0.00,,,0.00,0,Wunderground v.1.15,2013-01-14 12:21:00,
2013-01-14 07:31:00,45.5,43.0,29.87,SSE,163,1.0,1.0,91,0.00,,,0.00,0,Wunderground v.1.15,2013-01-14 12:31:00,
2013-01-14 07:36:00,45.2,42.4,29.87,SE,132,0.0,7.0,90,0.00,,,0.00,0,Wunderground v.1.15,2013-01-14 12:36:00,
2013-01-14 07:46:00,45.1,42.6,29.89,South,178,0.0,7.0,91,0.00,,,0.00,0,Wunderground v.1.15,2013-01-14 12:46:00,
2013-01-14 07:56:00,45.1,42.6,29.90,South,177,1.0,7.0,91,0.00,,,0.00,0,Wunderground v.1.15,2013-01-14 12:56:00,
2013-01-14 08:01:00,45.1,42.6,29.90,South,181,0.0,5.0,91,0.00,,,0.00,7,Wunderground v.1.15,2013-01-14 13:01:00,
2013-01-14 08:06:00,45.2,42.7,29.90,South,181,0.0,5.0,91,0.00,,,0.00,5,Wunderground v.1.15,2013-01-14 13:06:00,
2013-01-14 08:16:00,45.4,42.9,29.91,South,181,0.0,5.0,91,0.00,,,0.00,11,Wunderground v.1.15,2013-01-14 13:16:00,
2013-01-14 08:26:00,45.7,43.2,29.90,South,181,0.0,5.0,91,0.00,,,0.00,30,Wunderground v.1.15,2013-01-14 13:26:00,
2013-01-14 08:31:00,45.7,43.2,29.90,South,181,0.0,4.0,91,0.00,,,0.00,37,Wunderground v.1.15,2013-01-14 13:31:00,
2013-01-14 08:41:00,45.7,43.2,29.91,South,181,0.0,4.0,91,0.00,,,0.00,26,Wunderground v.1.15,2013-01-14 13:41:00,
2013-01-14 08:51:00,45.5,43.0,29.91,South,181,0.0,4.0,91,0.00,,,0.00,54,Wunderground v.1.15,2013-01-14 13:51:00,
2013-01-14 09:01:00,45.8,43.3,29.92,South,181,0.0,2.0,91,0.00,,,0.00,83,Wunderground v.1.15,2013-01-14 14:01:00,
2013-01-14 09:06:00,46.0,43.5,29.92,South,181,0.0,2.0,91,0.00,,,0.00,141,Wunderground v.1.15,2013-01-14 14:06:00,
2013-01-14 09:16:00,46.4,43.9,29.94,ESE,111,0.0,2.0,91,0.00,,,0.00,47,Wunderground v.1.15,2013-01-14 14:16:00,
2013-01-14 09:21:00,46.5,43.7,29.94,ESE,111,0.0,2.0,90,0.00,,,0.00,47,Wunderground v.1.15,2013-01-14 14:21:00,
2013-01-14 09:31:00,46.7,43.9,29.95,ESE,111,0.0,3.0,90,0.00,,,0.00,83,Wunderground v.1.15,2013-01-14 14:31:00,
2013-01-14 09:41:00,46.5,43.4,29.96,ESE,111,0.0,3.0,89,0.00,,,0.00,53,Wunderground v.1.15,2013-01-14 14:41:00,
2013-01-14 09:51:00,46.4,43.0,29.96,South,179,0.0,3.0,88,0.00,,,0.00,100,Wunderground v.1.15,2013-01-14 14:51:00,
2013-01-14 10:01:00,46.4,42.7,29.97,SE,129,0.0,5.0,87,0.00,,,0.00,46,Wunderground v.1.15,2013-01-14 15:01:00,
2013-01-14 10:11:00,46.5,41.9,29.98,East,90,1.0,1.0,84,0.00,,,0.00,69,Wunderground v.1.15,2013-01-14 15:11:00,
2013-01-14 10:21:00,46.7,41.8,29.98,East,90,0.0,5.0,83,0.00,,,0.00,160,Wunderground v.1.15,2013-01-14 15:21:00,
2013-01-14 10:31:00,46.4,39.9,29.98,East,90,0.0,4.0,78,0.00,,,0.00,72,Wunderground v.1.15,2013-01-14 15:31:00,
2013-01-14 10:41:00,46.1,38.3,29.99,East,90,0.0,4.0,74,0.00,,,0.00,81,Wunderground v.1.15,2013-01-14 15:41:00,
2013-01-14 10:46:00,46.1,38.6,29.99,East,90,0.0,4.0,75,0.00,,,0.00,97,Wunderground v.1.15,2013-01-14 15:46:00,
2013-01-14 10:56:00,46.0,38.2,29.99,East,90,0.0,4.0,74,0.00,,,0.00,90,Wunderground v.1.15,2013-01-14 15:56:00,
2013-01-14 11:06:00,46.2,38.0,29.99,East,90,0.0,3.0,73,0.00,,,0.00,97,Wunderground v.1.15,2013-01-14 16:06:00,
2013-01-14 11:16:00,46.5,38.3,30.00,East,90,0.0,3.0,73,0.00,,,0.00,53,Wunderground v.1.15,2013-01-14 16:16:00,
2013-01-14 11:26:00,46.1,33.0,30.01,South,191,0.0,3.0,60,0.00,,,0.00,60,Wunderground v.1.15,2013-01-14 16:26:00,
2013-01-14 11:31:00,46.2,31.8,30.01,SSW,202,1.0,5.0,57,0.00,,,0.00,269,Wunderground v.1.15,2013-01-14 16:31:00,
2013-01-14 11:41:00,46.4,32.8,30.01,WNW,298,1.0,5.0,59,0.00,,,0.00,130,Wunderground v.1.15,2013-01-14 16:41:00,
2013-01-14 11:51:00,46.4,32.8,30.01,North,358,0.0,5.0,59,0.00,,,0.00,100,Wunderground v.1.15,2013-01-14 16:51:00,
2013-01-14 12:01:00,46.1,33.0,30.02,NNE,20,0.0,7.0,60,0.00,,,0.00,97,Wunderground v.1.15,2013-01-14 17:01:00,
2013-01-14 12:11:00,46.0,32.5,30.03,NNE,20,0.0,7.0,59,0.00,,,0.00,83,Wunderground v.1.15,2013-01-14 17:11:00,
2013-01-14 12:21:00,45.4,31.5,30.03,SSE,161,1.0,1.0,58,0.00,,,0.00,74,Wunderground v.1.15,2013-01-14 17:21:00,
2013-01-14 12:26:00,45.4,31.5,30.04,ESE,104,1.0,7.0,58,0.00,,,0.00,91,Wunderground v.1.15,2013-01-14 17:26:00,
2013-01-14 12:36:00,45.2,30.0,30.04,NW,307,1.0,5.0,55,0.00,,,0.00,109,Wunderground v.1.15,2013-01-14 17:36:00,
2013-01-14 12:46:00,45.4,28.3,30.05,ENE,72,0.0,5.0,51,0.00,,,0.00,127,Wunderground v.1.15,2013-01-14 17:46:00,
2013-01-14 12:51:00,45.4,27.3,30.05,ENE,63,0.0,5.0,49,0.00,,,0.00,134,Wunderground v.1.15,2013-01-14 17:51:00,
2013-01-14 13:01:00,45.4,27.8,30.06,SSE,160,0.0,6.0,50,0.00,,,0.00,148,Wunderground v.1.15,2013-01-14 18:01:00,
2013-01-14 13:11:00,45.8,25.1,30.06,South,171,0.0,6.0,44,0.00,,,0.00,454,Wunderground v.1.15,2013-01-14 18:11:00,
2013-01-14 13:21:00,45.4,25.3,30.06,ESE,108,1.0,1.0,45,0.00,,,0.00,84,Wunderground v.1.15,2013-01-14 18:21:00,
2013-01-14 13:31:00,44.5,25.0,30.07,SSE,162,0.0,6.0,46,0.00,,,0.00,128,Wunderground v.1.15,2013-01-14 18:31:00,
2013-01-14 13:41:00,44.5,26.0,30.08,South,173,0.0,6.0,48,0.00,,,0.00,111,Wunderground v.1.15,2013-01-14 18:41:00,
2013-01-14 13:46:00,44.6,26.1,30.08,SE,126,0.0,6.0,48,0.00,,,0.00,132,Wunderground v.1.15,2013-01-14 18:46:00,
2013-01-14 13:56:00,44.9,26.9,30.08,SE,125,0.0,6.0,49,0.00,,,0.00,227,Wunderground v.1.15,2013-01-14 18:56:00,
2013-01-14 14:06:00,45.1,28.0,30.08,West,279,1.0,4.0,51,0.00,,,0.00,142,Wunderground v.1.15,2013-01-14 19:06:00,
2013-01-14 14:16:00,44.6,27.6,30.10,South,184,0.0,4.0,51,0.00,,,0.00,77,Wunderground v.1.15,2013-01-14 19:16:00,
2013-01-14 14:26:00,43.9,26.0,30.10,SSE,164,0.0,4.0,49,0.00,,,0.00,63,Wunderground v.1.15,2013-01-14 19:26:00,
2013-01-14 14:36:00,43.8,25.9,30.10,SSE,165,0.0,4.0,49,0.00,,,0.00,100,Wunderground v.1.15,2013-01-14 19:36:00,
2013-01-14 14:41:00,43.9,26.9,30.11,East,79,0.0,4.0,51,0.00,,,0.00,114,Wunderground v.1.15,2013-01-14 19:41:00,
2013-01-14 14:51:00,44.1,26.6,30.11,WSW,248,1.0,4.0,50,0.00,,,0.00,67,Wunderground v.1.15,2013-01-14 19:51:00,
2013-01-14 15:01:00,43.9,27.4,30.12,South,181,0.0,5.0,52,0.00,,,0.00,77,Wunderground v.1.15,2013-01-14 20:01:00,
2013-01-14 15:11:00,43.3,26.4,30.13,ESE,110,0.0,5.0,51,0.00,,,0.00,83,Wunderground v.1.15,2013-01-14 20:11:00,
2013-01-14 15:21:00,42.8,25.4,30.13,South,184,0.0,5.0,50,0.00,,,0.00,42,Wunderground v.1.15,2013-01-14 20:21:00,
2013-01-14 15:26:00,42.3,25.4,30.14,WNW,293,0.0,5.0,51,0.00,,,0.00,62,Wunderground v.1.15,2013-01-14 20:26:00,
2013-01-14 15:36:00,41.8,25.0,30.14,South,179,0.0,5.0,51,0.00,,,0.00,35,Wunderground v.1.15,2013-01-14 20:36:00,
2013-01-14 15:46:00,41.3,25.4,30.15,South,179,0.0,5.0,53,0.00,,,0.00,32,Wunderground v.1.15,2013-01-14 20:46:00,
2013-01-14 15:51:00,41.1,25.7,30.15,South,180,0.0,5.0,54,0.00,,,0.00,18,Wunderground v.1.15,2013-01-14 20:51:00,
2013-01-14 16:01:00,40.6,23.9,30.15,WSW,238,0.0,4.0,51,0.00,,,0.00,16,Wunderground v.1.15,2013-01-14 21:01:00,
2013-01-14 16:06:00,40.3,24.5,30.15,SW,216,1.0,4.0,53,0.00,,,0.00,12,Wunderground v.1.15,2013-01-14 21:06:00,
2013-01-14 16:16:00,40.1,23.9,30.15,SSE,158,0.0,4.0,52,0.00,,,0.00,11,Wunderground v.1.15,2013-01-14 21:16:00,
2013-01-14 16:26:00,39.6,23.4,30.16,SE,141,0.0,4.0,52,0.00,,,0.00,7,Wunderground v.1.15,2013-01-14 21:26:00,
2013-01-14 16:36:00,39.3,23.6,30.16,SE,141,0.0,4.0,53,0.00,,,0.00,0,Wunderground v.1.15,2013-01-14 21:36:00,
2013-01-14 16:46:00,38.6,24.2,30.16,SE,142,0.0,4.0,56,0.00,,,0.00,0,Wunderground v.1.15,2013-01-14 21:46:00,
2013-01-14 16:56:00,37.8,24.3,30.15,SE,142,0.0,4.0,58,0.00,,,0.00,0,Wunderground v.1.15,2013-01-14 21:56:00,
2013-01-14 17:11:00,37.2,24.6,30.15,SSW,199,1.0,1.0,60,0.00,,,0.00,0,Wunderground v.1.15,2013-01-14 22:11:00,
2013-01-14 17:21:00,36.6,24.8,30.15,SSW,199,0.0,3.0,62,0.00,,,0.00,0,Wunderground v.1.15,2013-01-14 22:21:00,
2013-01-14 17:31:00,35.9,24.5,30.16,SSW,199,0.0,3.0,63,0.00,,,0.00,0,Wunderground v.1.15,2013-01-14 22:31:00,
2013-01-14 17:36:00,35.6,24.6,30.16,SSW,199,0.0,3.0,64,0.00,,,0.00,0,Wunderground v.1.15,2013-01-14 22:36:00,
2013-01-14 17:46:00,35.0,24.4,30.16,SSW,199,0.0,3.0,65,0.00,,,0.00,0,Wunderground v.1.15,2013-01-14 22:46:00,
2013-01-14 17:56:00,34.6,24.4,30.17,SSW,199,0.0,3.0,66,0.00,,,0.00,0,Wunderground v.1.15,2013-01-14 22:56:00,
2013-01-14 18:06:00,34.1,24.3,30.17,SSW,199,0.0,1.0,67,0.00,,,0.00,0,Wunderground v.1.15,2013-01-14 23:06:00,
2013-01-14 18:16:00,33.5,24.4,30.17,SSW,199,0.0,1.0,69,0.00,,,0.00,0,Wunderground v.1.15,2013-01-14 23:16:00,
2013-01-14 18:26:00,33.2,24.8,30.18,SSW,199,0.0,1.0,71,0.00,,,0.00,0,Wunderground v.1.15,2013-01-14 23:26:00,
2013-01-14 18:36:00,32.8,24.1,30.18,SSW,199,0.0,0.0,70,0.00,,,0.00,0,Wunderground v.1.15,2013-01-14 23:36:00,
2013-01-14 18:46:00,32.7,25.0,30.20,SSW,199,0.0,0.0,73,0.00,,,0.00,0,Wunderground v.1.15,2013-01-14 23:46:00,
2013-01-14 18:51:00,32.5,24.8,30.20,SSW,199,0.0,0.0,73,0.00,,,0.00,0,Wunderground v.1.15,2013-01-14 23:51:00,
2013-01-14 18:56:00,32.4,24.7,30.22,SSW,199,0.0,0.0,73,0.00,,,0.00,0,Wunderground v.1.15,2013-01-14 23:56:00,
2013-01-14 19:06:00,32.2,24.8,30.22,SSW,199,0.0,0.0,74,0.00,,,0.00,0,Wunderground v.1.15,2013-01-15 00:06:00,
2013-01-14 19:16:00,31.9,24.6,30.23,SSW,199,0.0,0.0,74,0.00,,,0.00,0,Wunderground v.1.15,2013-01-15 00:16:00,
2013-01-14 19:21:00,31.6,24.3,30.23,SSW,199,0.0,0.0,74,0.00,,,0.00,0,Wunderground v.1.15,2013-01-15 00:21:00,
2013-01-14 19:31:00,31.5,25.1,30.21,SSW,199,0.0,0.0,77,0.00,,,0.00,0,Wunderground v.1.15,2013-01-15 00:31:00,
2013-01-14 19:41:00,31.2,25.1,30.20,SSW,199,0.0,0.0,78,0.00,,,0.00,0,Wunderground v.1.15,2013-01-15 00:41:00,
2013-01-14 19:51:00,30.9,25.2,30.20,SSW,199,0.0,0.0,79,0.00,,,0.00,0,Wunderground v.1.15,2013-01-15 00:51:00,
2013-01-14 20:01:00,30.3,24.9,30.23,SSW,199,0.0,2.0,80,0.00,,,0.00,0,Wunderground v.1.15,2013-01-15 01:01:00,
2013-01-14 20:11:00,30.1,25.0,30.24,SSW,199,0.0,2.0,81,0.00,,,0.00,0,Wunderground v.1.15,2013-01-15 01:11:00,
2013-01-14 20:21:00,30.3,25.5,30.24,SSW,199,0.0,2.0,82,0.00,,,0.00,0,Wunderground v.1.15,2013-01-15 01:21:00,
2013-01-14 20:26:00,30.3,25.5,30.23,SSW,199,0.0,2.0,82,0.00,,,0.00,0,Wunderground v.1.15,2013-01-15 01:26:00,
2013-01-14 20:36:00,29.8,25.0,30.23,SSW,199,0.0,0.0,82,0.00,,,0.00,0,Wunderground v.1.15,2013-01-15 01:36:00,
2013-01-14 20:46:00,30.0,25.2,30.25,SSW,199,0.0,0.0,82,0.00,,,0.00,0,Wunderground v.1.15,2013-01-15 01:46:00,
2013-01-14 20:56:00,30.0,25.2,30.24,SSW,199,0.0,0.0,82,0.00,,,0.00,0,Wunderground v.1.15,2013-01-15 01:56:00,
2013-01-14 21:11:00,30.3,25.5,30.24,SSW,199,0.0,0.0,82,0.00,,,0.00,0,Wunderground v.1.15,2013-01-15 02:11:00,
2013-01-14 21:21:00,30.4,25.9,30.24,SSW,199,0.0,0.0,83,0.00,,,0.00,0,Wunderground v.1.15,2013-01-15 02:21:00,
2013-01-14 21:31:00,30.7,26.1,30.22,SSW,199,0.0,0.0,83,0.00,,,0.00,0,Wunderground v.1.15,2013-01-15 02:31:00,
2013-01-14 21:41:00,30.9,26.3,30.23,SSW,199,0.0,0.0,83,0.00,,,0.00,0,Wunderground v.1.15,2013-01-15 02:41:00,
2013-01-14 21:51:00,31.0,26.1,30.23,SSW,199,0.0,0.0,82,0.00,,,0.00,0,Wunderground v.1.15,2013-01-15 02:51:00,
2013-01-14 21:56:00,31.2,26.6,30.20,SSW,199,0.0,0.0,83,0.00,,,0.00,0,Wunderground v.1.15,2013-01-15 02:56:00,
2013-01-14 22:06:00,31.2,26.3,30.20,SSW,199,0.0,2.0,82,0.00,,,0.00,0,Wunderground v.1.15,2013-01-15 03:06:00,
2013-01-14 22:16:00,31.2,26.3,30.20,SSW,199,0.0,2.0,82,0.00,,,0.00,0,Wunderground v.1.15,2013-01-15 03:16:00,
2013-01-14 22:21:00,31.3,26.1,30.20,SSW,199,0.0,2.0,81,0.00,,,0.00,0,Wunderground v.1.15,2013-01-15 03:21:00,
2013-01-14 22:31:00,31.3,26.1,30.22,SSW,199,0.0,2.0,81,0.00,,,0.00,0,Wunderground v.1.15,2013-01-15 03:31:00,
2013-01-14 22:41:00,31.2,26.3,30.23,SSW,199,0.0,2.0,82,0.00,,,0.00,0,Wunderground v.1.15,2013-01-15 03:41:00,
2013-01-14 22:51:00,31.2,26.3,30.23,SSW,199,0.0,2.0,82,0.00,,,0.00,0,Wunderground v.1.15,2013-01-15 03:51:00,
2013-01-14 23:01:00,31.2,26.6,30.24,SSW,199,0.0,0.0,83,0.00,,,0.00,0,Wunderground v.1.15,2013-01-15 04:01:00,
2013-01-14 23:11:00,31.3,26.7,30.24,SSW,199,0.0,0.0,83,0.00,,,0.00,0,Wunderground v.1.15,2013-01-15 04:11:00,
2013-01-14 23:21:00,31.3,26.7,30.24,SSW,199,0.0,0.0,83,0.00,,,0.00,0,Wunderground v.1.15,2013-01-15 04:21:00,
2013-01-14 23:26:00,31.3,26.7,30.25,SSW,199,0.0,0.0,83,0.00,,,0.00,0,Wunderground v.1.15,2013-01-15 04:26:00,
2013-01-14 23:36:00,31.2,26.6,30.25,SSW,199,0.0,0.0,83,0.00,,,0.00,0,Wunderground v.1.15,2013-01-15 04:36:00,
2013-01-14 23:46:00,31.0,26.4,30.26,SSW,199,0.0,0.0,83,0.00,,,0.00,0,Wunderground v.1.15,2013-01-15 04:46:00,
2013-01-14 23:56:00,30.9,26.3,30.27,SSW,199,0.0,0.0,83,0.00,,,0.00,0,Wunderground v.1.15,2013-01-15 04:56:00,